Regional Weather Roundup
Issued by NWS

Home | Current Version | Previous Version | Graphics & Text | Print | Product List | Glossary On
Versions: 1 2 3 4 5 6 7 8 9 10 11 12 13 14 15 16 17 18 19 20 21 22 23 24 25 26 27 28 29 30 31 32 33 34 35 36 37 38 39 40 41 42 43 44 45 46 47 48 49 50
000
ASUS43 KLOT 260408
RWRIL

ILLINOIS REGIONAL WEATHER ROUNDUP
NATIONAL WEATHER SERVICE CHICAGO/ROMEOVILLE IL
1100 PM CDT WED APR 25 2018

NOTE: "FAIR" INDICATES FEW OR NO CLOUDS BELOW 12,000 FEET WITH NO
SIGNIFICANT WEATHER AND/OR OBSTRUCTIONS TO VISIBILITY.

* THESE STATIONS ARE NOT UNDER NWS QUALITY CONTROL. THEY ALSO MAY NOT
  REPORT WEATHER SUCH AS PRECIPITATION OR FOG.

ILZ001-002-007-009-015-016-024-260500-
NORTHWEST ILLINOIS

CITY           SKY/WX    TMP DP  RH WIND       PRES   REMARKS
MOLINE         FAIR      45  34  65 CALM      29.98F
STERLING*      FAIR      44  33  65 E8        30.00F
SAVANNA*       FAIR      47  31  51 CALM      29.99F
$$

ILZ003-004-008-010-011-017-018-260500-
NORTH CENTRAL ILLINOIS

CITY           SKY/WX    TMP DP  RH WIND       PRES   REMARKS
ROCKFORD       FAIR      41  30  65 SE5       30.02F
FREEPORT*      FAIR      42  32  68 SE9       30.01F
ROCHELLE*      FAIR      38  30  72 SE6       30.02S WCI  34
DE KALB*       FAIR      37  30  75 E6        30.02S WCI  32
PERU*          FAIR      46  34  62 SE8       30.02S
$$

ILZ005-006-012>014-019>023-260500-
NORTHEAST ILLINOIS

CITY           SKY/WX    TMP DP  RH WIND       PRES   REMARKS
CHICAGO-OHARE  FAIR      40  28  62 CALM      30.01F
CHICAGO-MIDWAY FAIR      43  29  57 N3        30.01F
AURORA         FAIR      39  29  67 E3        30.01F
LANSING*       FAIR      38  34  85 CALM      30.02F
JOLIET*        FAIR      39  31  73 CALM      30.02S
WAUKEGAN       FAIR      32  30  92 CALM      30.01F
DUPAGE AIRPORT FAIR      37  30  75 CALM      30.01F
KANKAKEE*      FAIR      37  30  77 NE5       30.03F WCI  33
WHEELING       FAIR      39  30  70 CALM      30.03F
MORRIS*        FAIR      40  30  67 CALM      30.01F
ROMEOVILLE*    FAIR      37  30  75 E3        30.02F
NORTHERLY ISL    N/A     39  29  67 N3          N/A
$$

LMZ740>746-260500-
SOUTHERN LAKE MICHIGAN

STATION/POSITION SKY/WX   TEMP    WIND        PRES    VSBY  WAVE
                          AIR SEA DIR/SP/G                  HT/PER
                          (F)     (DEG/KT/KT) (MB)    (MI)  (FT/S)
HARRISON CRIB              41     330/  5/  6   N/A
BURNHAM HARBOR             39     360/  3/  5   N/A
CALUMET HARBOR             39     290/  2/  3 1015.9F
BURNS HARBOR               40     330/  6/  8 1016.9F
MICHIGAN CITY              38     290/  9/ 10   N/A
ST. JOSEPH                 42 43  360/ 12/ 14 1016.4          4/ 6
$$

ILZ025>027-034>036-040-047-049-050-058-095>099-260500-
WEST-CENTRAL ILLINOIS

CITY           SKY/WX    TMP DP  RH WIND       PRES   REMARKS
QUINCY         PTCLDY    50  38  63 NW5       29.99S
GALESBURG*     FAIR      46  34  62 CALM      29.99F
MACOMB*        CLOUDY    41  33  72 NW6       30.00F
JACKSONVILLE*  CLOUDY    50  38  63 N3        29.97F
PITTSFIELD*    CLOUDY    53  41  65 W3        29.99F
$$

ILZ028>032-037-038-041>044-048-051>054-059>061-260500-
CENTRAL ILLINOIS

CITY           SKY/WX    TMP DP  RH WIND       PRES   REMARKS
PONTIAC        FAIR      40  32  73 E7        30.03S
BLOOMINGTON    FAIR      43  35  73 E14       30.01F
DECATUR        FAIR      44  37  76 NE7       29.98F
PEORIA         FAIR      51  34  52 E13       29.99S
LACON*         FAIR      44  32  64 E8        30.00F
LINCOLN*       FAIR      45  39  78 NE7       29.99S
SPRINGFIELD    FAIR      52  39  61 N6        29.97F
TAYLORVILLE    FAIR      54  39  57 E7        29.98S
$$

ILZ033-039-045-046-055>057-062-063-260500-
EAST-CENTRAL ILLINOIS

CITY           SKY/WX    TMP DP  RH WIND       PRES   REMARKS
CHAMPAIGN      FAIR      45  33  63 NE7       29.99F
DANVILLE*      FAIR      39  33  79 NE6       29.98F
RANTOUL*       FAIR      45  36  70 NE8       30.01S
MATTOON        FAIR      50  36  58 E10       29.97F
PARIS*         FAIR      47  33  57 NE6       30.00F
$$

ILZ079-100>102-260500-
SOUTHWEST ILLINOIS

CITY           SKY/WX    TMP DP  RH WIND       PRES   REMARKS
ALTON          CLOUDY    57  46  66 N5        29.96F
BELLEVILLE     CLOUDY    56  55  95 SW6       29.95F
CAHOKIA*       LGT RAIN  56  54  93 S3        29.96F FOG
SPARTA*        LGT RAIN  54  54 100 CALM      29.97F
$$

ILZ064>066-069>071-074>076-080>082-084>086-088>090-092>094-260500-
SOUTH-CENTRAL ILLINOIS

CITY           SKY/WX    TMP DP  RH WIND       PRES   REMARKS
CARBONDALE     LGT RAIN  55  54  96 NW3       29.96S FOG
CAIRO*         CLOUDY    57  53  86 E3        29.93F
EFFINGHAM*     FAIR      55  41  59 NE5       29.98F
MARION         LGT RAIN  55  54  97 CALM      29.97S
MT. VERNON     LGT RAIN  57  55  93 W5        29.95F
CENTRALIA*     CLOUDY    58  56  94 W5        29.95F
SALEM*         CLOUDY    60  44  55 NE6       29.96S
METROPOLIS*    RAIN      57  54  92 N3        29.95F
$$

ILZ067-068-072-073-078-083-087-091-260500-
SOUTHEAST ILLINOIS

CITY           SKY/WX    TMP DP  RH WIND       PRES   REMARKS
LAWRENCEVILLE  FAIR      57  37  47 MISG      29.96F
FLORA*         FAIR      58  43  56 NE8       29.97S
FAIRFIELD*     CLOUDY    59  48  66 N7        29.93F
HARRISBURG*    RAIN      57  57  98 NW5       29.96S
ROBINSON*      FAIR      52  37  55 NE7       29.98F
CARMI*         CLOUDY    60  52  75 N5        29.93F
$$

ABBREVIATIONS USED IN REMARKS
   TC - TEMPERATURE IN CELSIUS
  WCI - WIND CHILL INDEX
   HX - HEAT INDEX
  VSB - VISIBILITY
$$




USA.gov is the U.S. government's official web portal to all federal, state and local government web resources and services.